Weather History for New York, NY

Change the Weather History Date:

Monday, February 4, 2013

  Actual Average Record
Temperature  
Mean Temperature 28 °F 34 °F  
Max Temperature 31 °F 40 °F 68 °F (1991)
Min Temperature 24 °F 27 °F 10 °F (1955)
Degree Days  
Heating Degree Days 37 31  
Month to date heating degree days 150 126  
Since 1 July heating degree days 2499 2725  
Cooling Degree Days 0 0  
Month to date cooling degree days 0 0  
Year to date cooling degree days 0 0  
Moisture  
Dew Point 9 °F    
Average Humidity 51    
Maximum Humidity 69    
Minimum Humidity 32    
Precipitation  
Precipitation 0.00 in 0.10 in 1.72 in (1961)
Month to date precipitation 0.04 0.39  
Year to date precipitation 2.68 3.56  
Snow  
Snow 0.00 in 0.30 in 11.90 in (1961)
Month to date snowfall 0.7 1.3  
Since 1 July snowfall 3.7 14.2  
Snow Depth T in    
Sea Level Pressure  
Sea Level Pressure 29.93 in    
Wind  
Wind Speed 16 mph (West)    
Max Wind Speed 26 mph    
Max Gust Speed 33 mph    
Visibility 10 miles    
Events      
T = Trace of Precipitation, MM = Missing Value Source: NWS Daily Summary

Daily Weather History Graph

Daily Weather History Graph

Search for Another Location

Airport:

Trip Planner

Search our weather history database for the weather conditions in past years. The results will help you decide how hot, cold, wet, or windy it might be!

Date:

Astronomy

Feb. 04, 2013 Rise Set
Actual Time 7:02 AM EST 5:17 PM EST
Civil Twilight 6:33 AM EST 5:45 PM EST
Nautical Twilight 6:01 AM EST 6:18 PM EST
Astronomical Twilight 5:28 AM EST 6:50 PM EST
Moon 1:35 AM EST (2/4) 11:38 AM EST (2/4)
Length of Visible Light 11h 12m
Length of Day
10h 14m
Last Quarter, 37% of the Moon is Illuminated
Feb 4
Last Quarter
Feb 10
New
Feb 17
First Quarter
Feb 25
Full
Mar 4
Last Quarter

Hourly Weather History & Observations

Time (EST) Temp. Windchill Dew Point Humidity Pressure Visibility Wind Dir Wind Speed Gust Speed Precip Events Conditions
12:51 AM 28.9 °F 18.2 °F 19.0 °F 67% 29.81 in 10.0 mi West 13.8 mph 20.7 mph N/A   Overcast
1:51 AM 28.9 °F 16.9 °F 17.1 °F 61% 29.82 in 10.0 mi WNW 17.3 mph 29.9 mph N/A   Overcast
2:51 AM 28.0 °F 14.6 °F 14.0 °F 56% 29.84 in 10.0 mi WNW 20.7 mph 24.2 mph N/A   Scattered Clouds
3:51 AM 27.0 °F 13.2 °F 10.9 °F 51% 29.85 in 10.0 mi WNW 20.7 mph 25.3 mph N/A   Partly Cloudy
5:51 AM 24.8 °F 10.3 °F 8.6 °F 50% 29.91 in 10.0 mi WNW 20.7 mph 28.8 mph N/A   Partly Cloudy
6:51 AM 25.0 °F 12.2 °F 8.1 °F 49% 29.93 in 10.0 mi WNW 16.1 mph 23.0 mph N/A   Partly Cloudy
7:51 AM 25.0 °F 13.1 °F 9.0 °F 51% 29.95 in 10.0 mi West 13.8 mph 25.3 mph N/A   Partly Cloudy
8:51 AM 26.1 °F 12.7 °F 8.1 °F 47% 29.96 in 10.0 mi West 18.4 mph 21.9 mph N/A   Partly Cloudy
9:51 AM 27.0 °F 13.5 °F 8.1 °F 45% 29.97 in 10.0 mi NW 19.6 mph 26.5 mph N/A   Partly Cloudy
10:51 AM 28.0 °F 17.5 °F 7.0 °F 41% 29.96 in 10.0 mi WNW 12.7 mph 24.2 mph N/A   Partly Cloudy
11:51 AM 28.9 °F 16.9 °F 7.0 °F 40% 29.95 in 10.0 mi West 17.3 mph 25.3 mph N/A   Scattered Clouds
12:51 PM 28.9 °F 17.3 °F 6.1 °F 38% 29.94 in 10.0 mi West 16.1 mph 24.2 mph N/A   Mostly Cloudy
1:51 PM 30.0 °F 16.9 °F 5.0 °F 35% 29.93 in 10.0 mi West 21.9 mph 27.6 mph N/A   Mostly Cloudy
2:51 PM 30.0 °F 18.3 °F 8.1 °F 40% 29.92 in 10.0 mi West 17.3 mph 23.0 mph N/A   Mostly Cloudy
3:51 PM 30.9 °F 20.2 °F 5.0 °F 33% 29.93 in 10.0 mi West 15.0 mph - N/A   Mostly Cloudy
4:51 PM 30.0 °F 18.3 °F 6.1 °F 36% 29.94 in 10.0 mi West 17.3 mph 23.0 mph N/A   Mostly Cloudy
5:51 PM 28.9 °F 16.5 °F 6.1 °F 38% 29.95 in 10.0 mi West 18.4 mph 24.2 mph N/A   Mostly Cloudy
6:51 PM 28.9 °F 19.8 °F 6.1 °F 38% 29.97 in 10.0 mi WSW 10.4 mph 18.4 mph N/A   Scattered Clouds
7:51 PM 28.9 °F 16.9 °F 7.0 °F 40% 29.98 in 10.0 mi West 17.3 mph - N/A   Overcast
8:51 PM 28.9 °F 19.2 °F 8.1 °F 41% 29.98 in 10.0 mi WSW 11.5 mph - N/A   Scattered Clouds
9:51 PM 30.0 °F 22.4 °F 9.0 °F 41% 29.97 in 10.0 mi West 8.1 mph - N/A   Overcast
10:51 PM 30.0 °F 23.2 °F 10.0 °F 43% 29.97 in 10.0 mi West 6.9 mph - N/A   Overcast
11:51 PM 30.0 °F 22.4 °F 12.0 °F 47% 29.97 in 10.0 mi SSW 8.1 mph - N/A   Overcast